Location: Gro� Glienicke
(52.4675°N, 13.1079°E)
Time: 02:56:57
(UTC+00:00)

NOSS 0 Rocket - Pass Details

Date: 06 July 2020
Orbit: 934 x 955 km, 70.0° (Epoch: 04 August)

Event Time Altitude Azimuth Distance (km) Brightness Sun altitude
Exits shadow 22:22:20 - 223° (SW) 3,607 6.6 -14.2°
Rises 22:22:23 0° 223° (SW) 3,584 6.6 -14.2°
Reaches altitude 10° 22:24:56 10° 227° (SW) 2,645 6.0 -14.3°
Maximum altitude 22:31:01 63° 308° (NW) 1,046 4.4 -14.4°
Drops below altitude 10° 22:37:10 10° 30° (NNE) 2,672 7.1 -14.6°
Sets 22:39:45 0° 34° (NNE) 3,623 7.8 -14.6°
